When you browse on this site, cookies collect data to enhance your experience and personalize the content and advertising you see.
Visit our Privacy Policy to learn more. By continuing to use the site, you agree to this use of cookies and data.
  • In Sweden
  • List of Countries
  • For 7 days
  • Water Temperature
  • Weather Map
  • Weather Widgets
  • user-avatar
    Login

    Hourly Weather Dzhimma

    Today, 24 August, Saturday

    Time Temperature Precipitation Wind Pressure Humidity
    00:00 +15°C° 1.4 mm 0 mps 620 mmHg 98%
    01:00 +15°C° 1.4 mm 0 mps 620 mmHg 98%
    02:00 +15°C° 1.4 mm 0 mps 620 mmHg 98%
    03:00 +15°C° 0.5 mm 0 mps 620 mmHg 98%
    04:00 +15°C° 0.5 mm 0 mps 620 mmHg 98%
    05:00 +15°C° 0.5 mm 0 mps 620 mmHg 99%
    06:00 +15°C° 1.6 mm 0 mps 621 mmHg 99%
    07:00 +16°C° 1.6 mm 0 mps 621 mmHg 98%
    08:00 +16°C° 1.6 mm 0 mps 622 mmHg 98%
    09:00 +16°C° 1.9 mm 0 mps 622 mmHg 98%
    10:00 +16°C° 1.9 mm 0 mps 622 mmHg 97%
    11:00 +18°C° 1.9 mm 1 mps 621 mmHg 97%
    12:00 +20°C° 0.2 mm 1 mps 621 mmHg 89%
    13:00 +21°C° 0.2 mm 1 mps 621 mmHg 82%
    14:00 +23°C° 0.2 mm 1 mps 621 mmHg 75%
    15:00 +22°C° 0.5 mm 1 mps 621 mmHg 81%
    16:00 +21°C° 0.5 mm 1 mps 620 mmHg 87%
    17:00 +18°C° 0.5 mm 0 mps 620 mmHg 92%
    18:00 +18°C° 0.6 mm 0 mps 620 mmHg 93%
    19:00 +17°C° 0.6 mm 0 mps 620 mmHg 94%
    20:00 +16°C° 0.6 mm 0 mps 621 mmHg 95%
    21:00 +16°C° 0.4 mm 0 mps 621 mmHg 96%
    22:00 +15°C° 0.4 mm 0 mps 621 mmHg 96%
    23:00 +15°C° 0.4 mm 0 mps 621 mmHg 97%

    Tomorrow, 25 August, Sunday

    Time Temperature Precipitation Wind Pressure Humidity
    00:00 +15°C° 0.6 mm 0 mps 620 mmHg 97%
    01:00 +15°C° 0.6 mm 0 mps 620 mmHg 98%
    02:00 +15°C° 0.6 mm 0 mps 619 mmHg 98%
    03:00 +15°C° 0.9 mm 0 mps 620 mmHg 98%
    04:00 +15°C° 0.9 mm 0 mps 620 mmHg 98%
    05:00 +15°C° 0.9 mm 0 mps 620 mmHg 98%
    06:00 +16°C° 0.3 mm 0 mps 621 mmHg 97%
    07:00 +16°C° 0.3 mm 0 mps 621 mmHg 96%
    08:00 +17°C° 0.3 mm 0 mps 622 mmHg 95%
    09:00 +19°C° 0.8 mm 0 mps 622 mmHg 91%
    10:00 +22°C° 0.8 mm 1 mps 622 mmHg 88%
    11:00 +24°C° 0.8 mm 1 mps 623 mmHg 84%
    12:00 +24°C° 1.4 mm 1 mps 622 mmHg 84%
    13:00 +24°C° 1.4 mm 1 mps 621 mmHg 84%
    14:00 +24°C° 1.4 mm 1 mps 621 mmHg 84%
    15:00 +21°C° 1.4 mm 0 mps 620 mmHg 87%
    16:00 +20°C° 1.4 mm 0 mps 619 mmHg 90%
    17:00 +19°C° 1.4 mm 0 mps 619 mmHg 93%
    18:00 +18°C° 0.7 mm 0 mps 619 mmHg 93%
    19:00 +17°C° 0.7 mm 0 mps 619 mmHg 93%
    20:00 +15°C° 0.7 mm 0 mps 619 mmHg 92%
    21:00 +15°C° 0.2 mm 0 mps 619 mmHg 93%
    22:00 +15°C° 0.2 mm 0 mps 619 mmHg 93%
    23:00 +15°C° 0.2 mm 0 mps 620 mmHg 93%

    Day after tomorrow, 26 August, Monday

    Time Temperature Precipitation Wind Pressure Humidity
    00:00 +15°C° 0.2 mm 0 mps 619 mmHg 94%
    01:00 +15°C° 0.2 mm 0 mps 619 mmHg 95%
    02:00 +15°C° 0.2 mm 0 mps 619 mmHg 96%
    03:00 +15°C° 0.1 mm 0 mps 619 mmHg 96%
    04:00 +15°C° 0.1 mm 0 mps 619 mmHg 96%
    05:00 +15°C° 0.1 mm 0 mps 620 mmHg 96%
    06:00 +16°C° 0 mm 0 mps 620 mmHg 94%
    07:00 +17°C° 0 mm 0 mps 621 mmHg 92%
    08:00 +19°C° 0 mm 0 mps 622 mmHg 89%
    09:00 +20°C° 0.3 mm 0 mps 622 mmHg 83%
    10:00 +23°C° 0.3 mm 1 mps 622 mmHg 77%
    11:00 +25°C° 0.3 mm 1 mps 622 mmHg 71%
    12:00 +25°C° 0.9 mm 1 mps 621 mmHg 74%
    13:00 +24°C° 0.9 mm 1 mps 620 mmHg 77%
    14:00 +24°C° 0.9 mm 1 mps 619 mmHg 80%
    15:00 +23°C° 0.9 mm 1 mps 619 mmHg 84%
    16:00 +22°C° 0.9 mm 1 mps 619 mmHg 88%
    17:00 +20°C° 0.9 mm 0 mps 619 mmHg 91%
    18:00 +18°C° 0.4 mm 0 mps 619 mmHg 92%
    19:00 +17°C° 0.4 mm 0 mps 619 mmHg 93%
    20:00 +15°C° 0.4 mm 0 mps 619 mmHg 93%
    21:00 +15°C° 0 mm 0 mps 619 mmHg 93%
    22:00 +15°C° 0 mm 0 mps 619 mmHg 93%
    23:00 +15°C° 0 mm 0 mps 619 mmHg 94%

    27 August, Tuesday

    Time Temperature Precipitation Wind Pressure Humidity
    00:00 +15°C° 0.1 mm 0 mps 619 mmHg 94%
    01:00 +15°C° 0.1 mm 0 mps 619 mmHg 94%
    02:00 +15°C° 0.1 mm 0 mps 618 mmHg 94%
    03:00 +15°C° 0.2 mm 0 mps 619 mmHg 94%
    04:00 +15°C° 0.2 mm 0 mps 619 mmHg 94%
    05:00 +15°C° 0.2 mm 0 mps 619 mmHg 94%
    06:00 +16°C° 0.2 mm 0 mps 620 mmHg 93%
    07:00 +17°C° 0.2 mm 0 mps 621 mmHg 92%
    08:00 +19°C° 0.2 mm 0 mps 622 mmHg 91%
    09:00 +20°C° 0.8 mm 0 mps 622 mmHg 88%
    10:00 +23°C° 0.8 mm 1 mps 622 mmHg 84%
    11:00 +24°C° 0.8 mm 1 mps 622 mmHg 80%
    12:00 +24°C° 1.5 mm 1 mps 621 mmHg 82%
    13:00 +24°C° 1.5 mm 1 mps 621 mmHg 83%
    14:00 +22°C° 1.5 mm 0 mps 620 mmHg 85%
    15:00 +21°C° 1.4 mm 0 mps 620 mmHg 88%
    16:00 +22°C° 1.4 mm 1 mps 619 mmHg 91%
    17:00 +20°C° 1.4 mm 1 mps 619 mmHg 93%
    18:00 +18°C° 0.8 mm 0 mps 619 mmHg 94%
    19:00 +17°C° 0.8 mm 0 mps 619 mmHg 94%
    20:00 +16°C° 0.8 mm 0 mps 620 mmHg 94%
    21:00 +16°C° 0.3 mm 0 mps 620 mmHg 95%
    22:00 +15°C° 0.3 mm 0 mps 619 mmHg 95%
    23:00 +15°C° 0.3 mm 0 mps 619 mmHg 95%

    28 August, Wednesday

    Time Temperature Precipitation Wind Pressure Humidity
    00:00 +15°C° 0.3 mm 0 mps 619 mmHg 96%
    01:00 +15°C° 0.3 mm 0 mps 619 mmHg 96%
    02:00 +15°C° 0.3 mm 0 mps 619 mmHg 97%
    03:00 +15°C° 0.1 mm 0 mps 619 mmHg 97%
    04:00 +14°C° 0.1 mm 0 mps 619 mmHg 97%
    05:00 +14°C° 0.1 mm 0 mps 619 mmHg 97%
    06:00 +15°C° 0.2 mm 0 mps 620 mmHg 97%
    07:00 +16°C° 0.2 mm 0 mps 621 mmHg 96%
    08:00 +17°C° 0.2 mm 0 mps 622 mmHg 95%
    09:00 +19°C° 1.2 mm 0 mps 622 mmHg 93%
    10:00 +20°C° 1.2 mm 0 mps 622 mmHg 91%
    11:00 +21°C° 1.2 mm 0 mps 622 mmHg 89%
    12:00 +21°C° 1.9 mm 0 mps 621 mmHg 89%
    13:00 +21°C° 1.9 mm 0 mps 620 mmHg 89%
    14:00 +21°C° 1.9 mm 0 mps 619 mmHg 89%
    15:00 +20°C° 1.3 mm 0 mps 619 mmHg 90%
    16:00 +21°C° 1.3 mm 1 mps 619 mmHg 92%
    17:00 +20°C° 1.3 mm 1 mps 619 mmHg 94%
    18:00 +19°C° 0.5 mm 1 mps 619 mmHg 94%
    19:00 +19°C° 0.5 mm 1 mps 619 mmHg 94%
    20:00 +18°C° 0.5 mm 1 mps 619 mmHg 94%
    21:00 +16°C° 0.2 mm 0 mps 619 mmHg 94%
    22:00 +16°C° 0.2 mm 0 mps 619 mmHg 94%
    23:00 +16°C° 0.2 mm 0 mps 619 mmHg 94%

    29 August, Thursday

    Time Temperature Precipitation Wind Pressure Humidity
    00:00 +15°C° 0.7 mm 0 mps 619 mmHg 95%
    01:00 +15°C° 0.7 mm 0 mps 619 mmHg 96%
    02:00 +15°C° 0.7 mm 0 mps 619 mmHg 97%
    03:00 +15°C° 1.7 mm 0 mps 619 mmHg 97%
    04:00 +15°C° 1.7 mm 0 mps 619 mmHg 98%
    05:00 +16°C° 1.7 mm 1 mps 619 mmHg 98%
    06:00 +15°C° 0.4 mm 0 mps 620 mmHg 97%
    07:00 +16°C° 0.4 mm 0 mps 620 mmHg 96%
    08:00 +17°C° 0.4 mm 0 mps 621 mmHg 94%
    09:00 +17°C° 0.4 mm 0 mps 621 mmHg 92%
    10:00 +18°C° 0.4 mm 0 mps 621 mmHg 90%
    11:00 +19°C° 0.4 mm 0 mps 621 mmHg 88%
    12:00 +19°C° 1.2 mm 0 mps 620 mmHg 89%
    13:00 +19°C° 1.2 mm 0 mps 620 mmHg 90%
    14:00 +19°C° 1.2 mm 0 mps 619 mmHg 91%
    15:00 +19°C° 0.8 mm 0 mps 619 mmHg 92%
    16:00 +18°C° 0.8 mm 0 mps 619 mmHg 94%
    17:00 +19°C° 0.8 mm 1 mps 618 mmHg 95%
    18:00 +16°C° 0.1 mm 0 mps 618 mmHg 95%
    19:00 +16°C° 0.1 mm 0 mps 618 mmHg 95%
    20:00 +15°C° 0.1 mm 0 mps 618 mmHg 94%
    21:00 +15°C° 0 mm 0 mps 618 mmHg 94%
    22:00 +14°C° 0 mm 0 mps 618 mmHg 94%
    23:00 +14°C° 0 mm 0 mps 618 mmHg 93%
    Show more